Regional Weather Roundup
Issued by NWS New Orleans/Baton Rouge, LA

Home | Current Version | Previous Version | Graphics & Text | Print | Product List | Glossary On
Versions: 1 2 3 4 5 6 7 8 9 10 11 12 13 14 15 16 17 18 19 20 21 22 23 24 25 26 27 28 29 30 31 32 33 34 35 36 37 38 39 40 41 42 43 44 45 46 47 48 49 50
238
ASUS44 KLIX 200701
RWRLIX
NEW ORLEANS REGIONAL WEATHER ROUNDUP
NATIONAL WEATHER SERVICE NEW ORLEANS LA
100 AM CST SAT DEC 20 2014

NOTE: "FAIR" INDICATES FEW OR NO CLOUDS BELOW 12,000 FEET WITH NO
      SIGNIFICANT WEATHER AND/OR OBSTRUCTIONS TO VISIBILITY.
      SKY/WX - SKY CONDITION AND SIGNIFICANT WEATHER.
      TMP - AIR TEMPERATURE.     DP    - DEWPOINT TEMPERATURE.
      RH  - RELATIVE HUMIDITY.   PRES  - PRESSURE.
      HI  - HEAT INDEX.          WCI   - WIND CHILL INDEX.

*  THESE STATIONS ARE NOT NWS OR FAA STATIONS AND ARE NOT UNDER
   NWS QUALITY CONTROL.

LAZ038-040-048-061>063-065>067-069-200800-
SOUTHEAST LOUISIANA

CITY           SKY/WX    TMP DP  RH WIND       PRES   REMARKS
N.O. AUDUBON   NOT AVBL
N.O. INTL ARPT LGT RAIN  51  48  89 NE13      30.06F FOG
N.O. LAKEFRONT LGT RAIN  52  49  89 NE16      30.07F
N.O. DOWNTOWN* CLOUDY    50  45  81 NE6       30.07S
SLIDELL        RAIN      50  47  89 N8        30.07F FOG
BATON ROUGE    LGT RAIN  48  46  93 N5        30.10R
BOOTHVILLE     LGT RAIN  58  57  97 N7        30.01F
BELLE CHASSE   LGT RAIN  50  48  93 NE10      30.05F FOG
BOGALUSA*      DRIZZLE   48  46  90 N7        30.11F
GALLIANO*      NOT AVBL
NEW ROADS*     NOT AVBL
GONZALES*      NOT AVBL
HAMMOND*       NOT AVBL
HOUMA*         LGT RAIN  50  49  97 N9        30.04F
PORT FOURCHON* FOG       55  55 100 NE17      30.04S VSB 1

$$

MSZ070-080>082-200800-
SOUTHERN MISSISSIPPI

CITY           SKY/WX    TMP DP  RH WIND       PRES   REMARKS
MCCOMB         CLOUDY    46  44  93 N10       30.11S
GULFPORT       LGT RAIN  47  45  93 NE9       30.06F
BILOXI         LGT RAIN  47  47 100 NE10      30.07S
PASCAGOULA     LGT RAIN  47  46  97 NE9       30.07F

$$

COASTAL OBSERVATIONS
LAKE AND NEARSHORE STATIONS

STATION/POSITION TIME  TEMP    WIND        PRES    WAVE
                       AIR SEA DIR/SP/G            HT/PER
                 (UTC) (F)     (DEG/KT/KT) (MB)    (FT/S)
PASCAGOULA       0600   49      50/ 10/ 13 1017.6
WAVELAND YACHT   0600   48      50/ 10/ 14 1017.2
GRAND ISLE       0600   57 62   60/ 15/ 19 1016.3
SOUTHWEST PASS   0600   59                 1015.8
NEW CANAL        0600   51 56   50/ 16/ 18 1018.4
SHELL BEACH      0600   51 58   50/ 17/ 20 1017.1

OFFSHORE STATIONS

STATION/POSITION TIME  TEMP    WIND        PRES    WAVE
                       AIR SEA DIR/SP/G            HT/PER
                 (UTC) (F)     (DEG/KT/KT) (MB)    (FT/S)
64 S DAUPHIN ISL 0700   68 75  100/ 17/ 21 1015.7    5/ 5

$$




USA.gov is the U.S. government's official web portal to all federal, state and local government web resources and services.